Tracking 17631 objects as of 3-May-2016
HD Live streaming from Space Station
objects crossing your sky now

GLOBALSTAR M031

Track GLOBALSTAR M031 now!
10-day predictions
GLOBALSTAR M031 is classified as:


NORAD ID: 25946
Int'l Code: 1999-058D
Perigee: 1,616.8 km
Apogee: 1,618.0 km
Inclination: 52.0 °
Period: 118.4 minutes
Semi major axis: 7988 km
RCS: 2.5697 m2 (large)
Launch date: October 18, 1999
Source: Globalstar (GLOB)
Launch site: TYURATAM MISSILE AND SPACE COMPLEX (TTMTR)
Your satellite tracking list
Your tracking list is empty





NASA's NSSDC Master Catalog

Two Line Element Set (TLE):
1 25946U 99058D   16123.91662829 +.00000012 +00000-0 +10386-2 0  9996
2 25946 051.9981 040.3134 0000775 273.6895 162.3905 12.15937487759335
Source of the keplerian elements: AFSPC

N2YO: 459